WetterOnline ( http://www.wetteronline.de )

Wetter aktuell PLZ Bereich 09548

Aktuelles Wetter: Marienberg (640m)

6-stündlich | Neueste Meldungen
Ortszeit Temperatur Wetter
Do, 18.10. 8:00 6.6° C fast wolkenlos
Do, 18.10. 2:00 8.7° C leicht bewölkt
Mi, 17.10. 20:00 10.0° C wolkig
Mi, 17.10. 14:00 17.6° C wolkenlos
Mi, 17.10. 8:00 9.2° C bewölkt
Mi, 17.10. 2:00 8.4° C fast wolkenlos
Di, 16.10. 20:00 11.8° C wolkig
Di, 16.10. 14:00 16.9° C wolkig
Ortszeit Temperatur Wetter
Do, 18.10. 8:30 7.2° C bedeckt
Do, 18.10. 8:20 7.2° C bedeckt
Do, 18.10. 8:00 6.6° C fast wolkenlos
Do, 18.10. 7:50 6.6° C fast wolkenlos
Do, 18.10. 7:40 6.3° C leicht bewölkt
Do, 18.10. 7:30 6.5° C leicht bewölkt
Do, 18.10. 7:00 7.3° C leicht bewölkt
Do, 18.10. 6:30 6.4° C leicht bewölkt
Do, 18.10. 6:00 5.8° C wolkig
Do, 18.10. 5:30 6.6° C leicht bewölkt
Ortszeit Relative Feuchte Sichtweite
Do, 18.10. 8:00 95% 5.0 km
Do, 18.10. 2:00 85% 13 km
Mi, 17.10. 20:00 80% 22 km
Mi, 17.10. 14:00 45% 30 km
Mi, 17.10. 8:00 79% 25 km
Mi, 17.10. 2:00 82% 25 km
Di, 16.10. 20:00 76% 18 km
Di, 16.10. 14:00 49% 30 km
Ortszeit Relative Feuchte Sichtweite
Do, 18.10. 8:30 93% 5.0 km
Do, 18.10. 8:20 93% -
Do, 18.10. 8:00 95% 5.0 km
Do, 18.10. 7:50 95% -
Do, 18.10. 7:40 94% -
Do, 18.10. 7:30 93% 6 km
Do, 18.10. 7:00 91% 8 km
Do, 18.10. 6:30 93% 7 km
Do, 18.10. 6:00 93% 6 km
Do, 18.10. 5:30 93% 6 km
Ortszeit Niederschlagsmenge Niederschlagsart
Do, 18.10. 8:00 0.0 l/m2 in 12 Std. -
Do, 18.10. 2:00 0.0 l/m2 in 6 Std. -
Mi, 17.10. 20:00 0.0 l/m2 in 12 Std. -
Mi, 17.10. 14:00 0.0 l/m2 in 6 Std. -
Mi, 17.10. 8:00 0.0 l/m2 in 12 Std. -
Mi, 17.10. 2:00 0.0 l/m2 in 6 Std. -
Di, 16.10. 20:00 0.1 l/m2 in 12 Std. -
Di, 16.10. 14:00 0.1 l/m2 in 6 Std. Regen
Ortszeit Niederschlagsmenge Niederschlagsart
Do, 18.10. 8:30 0.0 l/m2 in 1 Std. -
Do, 18.10. 8:20 keine Meldung -
Do, 18.10. 8:00 0.0 l/m2 in 1 Std. -
Do, 18.10. 7:50 keine Meldung -
Do, 18.10. 7:40 keine Meldung -
Do, 18.10. 7:30 0.0 l/m2 in 1 Std. -
Do, 18.10. 7:00 0.0 l/m2 in 1 Std. -
Do, 18.10. 6:30 0.0 l/m2 in 1 Std. -
Do, 18.10. 6:00 0.0 l/m2 in 1 Std. -
Do, 18.10. 5:30 0.0 l/m2 in 1 Std. -
Ortszeit Stärke Spitze Richtung
km/h Bft. km/h Grad Sektor
Do, 18.10. 8:00 7 2 11 250° W
Do, 18.10. 2:00 7 2 11 250° W
Mi, 17.10. 20:00 4 1 18 240° SW
Mi, 17.10. 14:00 9 2 15 270° W
Mi, 17.10. 8:00 7 2 11 250° W
Mi, 17.10. 2:00 7 2 9 220° SW
Di, 16.10. 20:00 4 1 18 260° W
Di, 16.10. 14:00 6 1 15 240° SW
Ortszeit Stärke Spitze Richtung
km/h Bft. km/h Grad Sektor
Do, 18.10. 8:30 7 2 7 250° W
Do, 18.10. 8:20 7 2 - 250° W
Do, 18.10. 8:00 7 2 9 250° W
Do, 18.10. 7:50 7 2 - 250° W
Do, 18.10. 7:40 7 2 - 260° W
Do, 18.10. 7:30 7 2 7 250° W
Do, 18.10. 7:00 7 2 7 250° W
Do, 18.10. 6:30 6 1 7 250° W
Do, 18.10. 6:00 7 2 7 260° W
Do, 18.10. 5:30 6 1 7 250° W
Ortszeit Untergrenze Bedeckung Gattung
total tief tief mittel hoch
Do, 18.10. 8:00 2100 m 1/8 1/8 - - -
Do, 18.10. 2:00 2700 m 2/8 - - - -
Mi, 17.10. 20:00 2400 m 8/8 2/8 - - -
Mi, 17.10. 14:00 - 0/8 0/8 - - -
Mi, 17.10. 8:00 2400 m 7/8 7/8 - - -
Mi, 17.10. 2:00 3600 m 1/8 1/8 - - -
Di, 16.10. 20:00 2400 m 8/8 1/8 - - -
Di, 16.10. 14:00 3900 m 6/8 6/8 - - -
Ortszeit Bedeckungsgrad in Achtel und Wolkenuntergrenze
Do, 18.10. 8:30 9 9 9
Do, 18.10. 8:20 9 9 9
Do, 18.10. 8:00 1(2100m)
Do, 18.10. 7:50 1(2100m) 1(9000m)
Do, 18.10. 7:40 1(2100m) 2(9000m)
Do, 18.10. 7:30 2(2100m) 3(9000m)
Do, 18.10. 7:00 2(2100m) 9 9
Do, 18.10. 6:30 2(2400m)
Do, 18.10. 6:00 1(2400m)
Do, 18.10. 5:30 2(2400m)
Ortszeit Luftdruck NN (hPa) Tendenz (hPa in 3 Std.)
Do, 18.10. 8:00 1022 + 0,5
Do, 18.10. 2:00 1021 - 0,2
Mi, 17.10. 20:00 1020 + 0,7
Mi, 17.10. 14:00 1018 - 0,6
Mi, 17.10. 8:00 1021 + 0,1
Mi, 17.10. 2:00 1021 - 0,4
Di, 16.10. 20:00 1020 + 0,9
Di, 16.10. 14:00 1018 + 0,2
Ortszeit Luftdruck NN (hPa) Tendenz (hPa in 3 Std.)
Do, 18.10. 8:30 1022 + 0,8
Do, 18.10. 8:20 1022 keine Meldung
Do, 18.10. 8:00 1022 + 0,5
Do, 18.10. 7:50 1022 keine Meldung
Do, 18.10. 7:40 1022 keine Meldung
Do, 18.10. 7:30 1022 + 0,4
Do, 18.10. 7:00 1021 + 0,3
Do, 18.10. 6:30 1021 + 0,1
Do, 18.10. 6:00 1022 0,0
Do, 18.10. 5:30 1021 - 0,2
Ortszeit Schneehöhe (cm)
Do, 18.10. 8:00 0
Do, 18.10. 2:00 0
Mi, 17.10. 20:00 0
Mi, 17.10. 14:00 0
Mi, 17.10. 8:00 0
Mi, 17.10. 2:00 0
Di, 16.10. 20:00 0
Di, 16.10. 14:00 0
Ortszeit Schneehöhe (cm)
Do, 18.10. 8:30 0
Do, 18.10. 8:20 0
Do, 18.10. 8:00 0
Do, 18.10. 7:50 0
Do, 18.10. 7:40 0
Do, 18.10. 7:30 0
Do, 18.10. 7:00 0
Do, 18.10. 6:30 0
Do, 18.10. 6:00 0
Do, 18.10. 5:30 0
Link zu dieser Seite / Seite empfehlen

Das Wetter in ...